Location: Ferintosh
(52.7647°N, 112.9692°W)
Time: 18:05:11
(UTC+00:00)

Explorer 7 - Pass Details

Date: 29 May 2024
Orbit: 466 x 622 km, 50.3° (Epoch: 15 June)

Event Time Altitude Azimuth Distance (km) Brightness Sun altitude
Rises 03:50:38 0° 214° (SW) 2,492 10.1 -1.8°
Reaches altitude 10° 03:53:07 10° 197° (SSW) 1,628 9.0 -2.1°
Maximum altitude 03:55:54 21° 148° (SSE) 1,129 7.9 -2.4°
Drops below altitude 10° 03:58:46 10° 98° (E) 1,673 8.8 -2.7°
Sets 04:01:21 0° 82° (E) 2,583 9.9 -3.0°
